Location: Home
(42.5358°N, 72.7383°W)
Time: 13:54:24
(UTC-05:00)

deb Explorer IX - Pass Details

Date: 30 November 2021
Orbit: 544 x 1082 km, 38.8° (Epoch: 16 January)

Event Time Altitude Azimuth Distance (km) Brightness Sun altitude
Rises 11:43:26 0° 236° (SW) 2,835 ? 25.7°
Reaches altitude 10° 11:45:58 10° 227° (SW) 1,878 ? 25.7°
Maximum altitude 11:49:46 32° 163° (SSE) 948 ? 25.7°
Drops below altitude 10° 11:53:26 10° 99° (E) 1,803 ? 25.6°
Sets 11:55:49 0° 89° (E) 2,703 ? 25.6°
